Satellite: NO-44
Catalog number: 26931
Epoch time:      11082.69253555
Element set:     709
Inclination:      067.0530 deg
RA of node:       203.8178 deg
Eccentricity:    0.0007137
Arg of perigee:   268.3421 deg
Mean anomaly:     091.6850 deg
Mean motion:   14.29642021 rev/day
Decay rate:       1.99e-06 rev/day^2
Epoch rev:           49470
Checksum:              304

Satellite: SO-50
Catalog number: 27607
Epoch time:      11083.80590316
Element set:     422
Inclination:      064.5581 deg
RA of node:       224.0683 deg
Eccentricity:    0.0063220
Arg of perigee:   340.4665 deg
Mean anomaly:     019.4023 deg
Mean motion:   14.71671555 rev/day
Decay rate:       2.22e-06 rev/day^2
Epoch rev:           44367
Checksum:              276

Satellite: CO-55
Catalog number: 27844
Epoch time:      11083.52900663
Element set:      72
Inclination:      098.7085 deg
RA of node:       093.4574 deg
Eccentricity:    0.0010664
Arg of perigee:   082.8816 deg
Mean anomaly:     277.3576 deg
Mean motion:   14.20781002 rev/day
Decay rate:       1.13e-06 rev/day^2
Epoch rev:           40089
Checksum:              305

Satellite: CO-57
Catalog number: 27848
Epoch time:      11082.54372424
Element set:    0020
Inclination:      098.7135 deg
RA of node:       091.6464 deg
Eccentricity:    0.0010482
Arg of perigee:   088.5724 deg
Mean anomaly:     271.6654 deg
Mean motion:   14.20564409 rev/day
Decay rate:       1.14e-06 rev/day^2
Epoch rev:           40070
Checksum:              291

Satellite: AO-51
Catalog number: 28375
Epoch time:      11083.86930625
Element set:     927
Inclination:      098.0900 deg
RA of node:       066.7838 deg
Eccentricity:    0.0084174
Arg of perigee:   326.6119 deg
Mean anomaly:     032.9779 deg
Mean motion:   14.40736329 rev/day
Decay rate:       1.52e-06 rev/day^2
Epoch rev:           35392
Checksum:              333

Satellite: CP3
Catalog number: 31129
Epoch time:      11082.72629152
Element set:    0828
Inclination:      097.9078 deg
RA of node:       111.8521 deg
Eccentricity:    0.0103520
Arg of perigee:   086.5635 deg
Mean anomaly:     274.7369 deg
Mean motion:   14.52403359 rev/day
Decay rate:       3.10e-06 rev/day^2
Epoch rev:           20843
Checksum:              290

Satellite: CO-65
Catalog number: 32785
Epoch time:      11082.66598292
Element set:    0946
Inclination:      097.8571 deg
RA of node:       148.1666 deg
Eccentricity:    0.0016131
Arg of perigee:   095.4496 deg
Mean anomaly:     264.8558 deg
Mean motion:   14.81871986 rev/day
Decay rate:       1.83e-06 rev/day^2
Epoch rev:           15687
Checksum:              372

Satellite: KKS-1
Catalog number: 33493
Epoch time:      11083.74080714
Element set:     424
Inclination:      098.1135 deg
RA of node:       211.1963 deg
Eccentricity:    0.0019014
Arg of perigee:   316.5040 deg
Mean anomaly:     043.4677 deg
Mean motion:   14.81419641 rev/day
Decay rate:       9.81e-06 rev/day^2
Epoch rev:           11701
Checksum:              269

Satellite: SOHLA-1
Catalog number: 33496
Epoch time:      11082.94209019
Element set:    0375
Inclination:      098.0719 deg
RA of node:       193.6798 deg
Eccentricity:    0.0007365
Arg of perigee:   040.9512 deg
Mean anomaly:     319.2247 deg
Mean motion:   14.69572259 rev/day
Decay rate:       1.07e-06 rev/day^2
Epoch rev:           11596
Checksum:              324

Satellite: TISAT-1
Catalog number: 36799
Epoch time:      11083.85714312
Element set:     700
Inclination:      098.1102 deg
RA of node:       151.2515 deg
Eccentricity:    0.0015393
Arg of perigee:   184.9013 deg
Mean anomaly:     175.2033 deg
Mean motion:   14.80378280 rev/day
Decay rate:       5.92e-06 rev/day^2
Epoch rev:            3783
Checksum:              283

Satellite: STUDSAT
Catalog number: 36801
Epoch time:      11083.79572391
Element set:     153
Inclination:      098.1159 deg
RA of node:       151.0372 deg
Eccentricity:    0.0014067
Arg of perigee:   174.2352 deg
Mean anomaly:     185.9023 deg
Mean motion:   14.80162644 rev/day
Decay rate:      1.531e-05 rev/day^2
Epoch rev:            3781
Checksum:              278

Satellite: RAX
Catalog number: 37223
Epoch time:      11082.82823385
Element set:    0116
Inclination:      071.9684 deg
RA of node:       227.1148 deg
Eccentricity:    0.0019094
Arg of perigee:   081.6414 deg
Mean anomaly:     278.6911 deg
Mean motion:   14.77282400 rev/day
Decay rate:       1.82e-06 rev/day^2
Epoch rev:           01828
Checksum:              291

Satellite: OOREOS
Catalog number: 37224
Epoch time:      11076.42207246
Element set:    1095
Inclination:      071.9712 deg
RA of node:       241.3960 deg
Eccentricity:    0.0017800
Arg of perigee:   096.5373 deg
Mean anomaly:     263.7815 deg
Mean motion:   14.76929834 rev/day
Decay rate:       8.68e-06 rev/day^2
Epoch rev:           01732
Checksum:              305

Satellite: NANOSALD
Catalog number: 37225
Epoch time:      11080.41235428
Element set:    0097
Inclination:      071.9730 deg
RA of node:       232.2252 deg
Eccentricity:    0.0024394
Arg of perigee:   042.6308 deg
Mean anomaly:     317.6744 deg
Mean motion:   14.82560370 rev/day
Decay rate:     5.6672e-04 rev/day^2
Epoch rev:           00903
Checksum:              277

